Location: Bodest
(46.3000°N, 22.5667°E)
Time: 21:03:45
(UTC+00:00)

Cosmos 405 Rocket - Pass Details

Date: 16 October 2021
Orbit: 488 x 551 km, 81.3° (Epoch: 29 November)

Event Time Altitude Azimuth Distance (km) Brightness Sun altitude
Rises 16:55:24 0° 353° (N) 2,667 6.4 -13.5°
Reaches altitude 10° 16:57:35 10° 359° (N) 1,784 5.5 -13.9°
Maximum altitude 17:01:26 52° 76° (ENE) 671 2.9 -14.6°
Drops below altitude 10° 17:05:19 10° 154° (SSE) 1,803 5.2 -15.2°
Enters shadow 17:06:26 - 157° (SSE) 2,253 5.7 -15.4°
